Simultaneous Nadir Overpasses (SNOs) Predictions

Prediction of SNOs between NOAA-20 and TERRA Satellite Orbit:

Table of predicted SNOs for the next 14.0 days since TLE Epoch: 5/25/2024
Index Date (NOAA-20) Time (NOAA-20) Lat,Lon (NOAA-20) SZA (NOAA-20 ) Date (TERRA) Time (TERRA) Lat,Lon (TERRA) SZA (TERRA ) Distance(km) Time Diff (sec)
1 05/26/2024 10:28:32 72.22, 15.75 51.00 05/26/2024 10:29:15 72.22, 15.77 50.99 0.75 43
2 05/26/2024 11:19:14 -72.12,-176.75 129.11 05/26/2024 11:18:40 -72.10,-176.79 129.13 3.15 34
3 05/28/2024 22:31:34 -72.20, 15.02 129.42 05/28/2024 22:31:58 -72.18, 14.98 129.45 2.62 24
4 05/28/2024 23:22:18 72.10,-177.49 50.47 05/28/2024 23:21:19 72.09,-177.51 50.47 1.88 59
5 05/31/2024 09:44:01 -72.58,-153.84 129.36 05/31/2024 09:45:12 -72.48,-152.84 129.52 35.09 71
6 05/31/2024 10:34:39 72.19, 14.26 50.21 05/31/2024 10:34:37 72.17, 14.27 50.19 1.72 2
7 05/31/2024 11:25:17 -71.88,-177.85 130.12 05/31/2024 11:24:04 -71.96,-178.44 130.01 21.97 73
8 06/02/2024 21:47:00 72.28,-154.01 49.99 06/02/2024 21:47:54 72.27,-153.92 49.97 3.19 54
9 06/02/2024 22:37:42 -72.18, 13.50 130.12 06/02/2024 22:37:19 -72.17, 13.56 130.13 2.39 23
10 06/05/2024 09:50:02 -72.23,-154.68 130.34 06/05/2024 09:50:36 -72.24,-154.69 130.34 0.47 34
11 06/05/2024 10:40:46 72.14, 12.81 49.56 06/05/2024 10:39:57 72.12, 12.79 49.56 1.74 49
12 06/07/2024 21:02:35 -72.95, 35.78 129.79 06/07/2024 21:03:42 -72.85, 38.07 130.01 75.85 67
13 06/07/2024 21:53:06 72.20,-155.39 49.39 06/07/2024 21:53:13 72.20,-155.44 49.39 1.66 7



Historial Predications of SNOs between NOAA-20 and TERRA
